#timestamp,LO_Frequency,Hit,StdDev 
1568070015.5,286047001.8,N
1568070035.3,286047003.4,N
1568070055.2,286047001.6,N
1568070075.0,286047002.6,N
1568070075.9,286047002.6,N
1568070095.7,286047000.2,N
1568070115.6,286047000.8,N
1568070135.4,286047000.3,N
1568070155.3,286046999.8,N
1568070175.1,286047002.0,N
1568070176.0,286047002.0,N
1568070195.8,286047002.0,N
1568070215.7,286047000.2,N
1568070235.5,286047003.9,Y
1568070255.4,286047002.3,P
1568070275.2,286047000.9,N
1568070295.0,286047001.9,P
1568070295.9,286047001.9,Y
1568070315.8,286047000.7,P
1568070335.6,286046998.2,P
1568070355.4,286046996.7,N
1568070375.3,286046997.1,N
1568070395.1,286046996.8,N
1568070415.9,286046999.3,N
1568070435.7,286046998.1,N
1568070455.5,286047000.7,N
1568070475.4,286047001.0,N
1568070495.2,286047000.2,N
1568070515.0,286047000.9,N
1568070516.0,286047000.9,N
1568070535.8,286047002.1,N
1568070555.6,286047003.4,N
1568070575.5,286047002.0,N
1568070595.3,286047002.4,N
1568070615.1,286046999.9,N
1568070635.9,286047000.4,N
1568070655.7,286047001.4,N
1568070675.6,286047002.4,N
1568070695.4,286046999.7,N
1568070715.2,286047005.9,Y
1568070735.1,286047004.6,P
1568070736.0,286047004.6,N
1568070755.8,286047006.0,N
1568070775.6,286047003.0,N
1568070795.5,286047001.7,N
1568070815.3,286047002.4,N
1568070835.2,286047000.7,N
1568070855.9,286046999.4,N
1568070875.7,286047002.0,N
1568070895.6,286047003.9,N
1568070915.4,286047001.6,N
1568070935.2,286046999.8,N
1568070955.1,286047003.4,N
1568070956.0,286047003.4,N
1568070975.8,286047005.5,N
1568070995.7,286047003.9,N
1568071015.5,286047004.1,N
1568071035.3,286047002.2,N
1568071055.2,286046999.8,N
1568071075.9,286047001.5,N
1568071095.7,286047000.3,N
1568071115.6,286047002.2,N
1568071135.4,286047004.4,N
1568071155.2,286047003.8,N
1568071175.1,286047000.4,N
1568071176.0,286047000.4,N
1568071195.8,286047001.0,N
1568071215.7,286047002.2,N
1568071235.5,286047001.3,N
1568071255.3,286046999.8,N
1568071275.2,286047001.5,N
1568071295.0,286047006.0,Y
1568071295.9,286047006.0,P
1568071315.8,286047000.1,N
1568071335.6,286047001.9,N
1568071355.4,286047000.1,N
1568071375.3,286046998.5,N
1568071395.1,286046998.2,N
1568071396.0,286046998.2,N
1568071415.8,286047000.5,N
1568071435.7,286047000.3,N
1568071455.5,286047000.5,N
1568071475.3,286046999.2,N
1568071495.2,286046997.7,N
1568071515.0,286046995.8,N
1568071515.9,286046995.8,N
1568071535.8,286046997.9,N
1568071555.6,286046997.5,N
1568071575.4,286046997.7,N
1568071595.3,286046999.6,N
1568071615.1,286046998.6,N
1568071635.8,286046999.7,N
1568071655.7,286047000.6,N
1568071675.5,286047002.6,N
1568071695.4,286047000.2,N
1568071715.2,286047000.1,N
1568071735.0,286047002.0,N
1568071735.9,286047002.0,N
1568071755.8,286047002.1,N
1568071775.6,286047002.8,N
1568071795.4,286047002.4,N
1568071815.3,286047003.5,N
1568071835.1,286047002.5,N
1568071855.9,286047002.7,N
1568071875.7,286047002.4,N
1568071895.5,286047004.2,N
1568071915.4,286047002.6,N
1568071935.2,286047001.3,N
1568071955.0,286047003.4,N
1568071955.9,286047003.4,N
1568071975.8,286047003.7,N
1568071995.6,286047002.6,N
1568072015.5,286047001.4,N
1568072035.3,286047002.2,N
1568072055.1,286047002.0,N
1568072075.9,286047003.8,N
1568072095.7,286047003.5,N
1568072115.5,286047003.5,N
1568072135.4,286047004.4,N
1568072155.2,286046999.7,N
1568072175.1,286047002.3,N
1568072176.0,286047002.3,N
1568072195.8,286047004.0,Y
1568072215.6,286047002.4,P
1568072235.5,286047000.2,P
1568072255.3,286047002.2,N
1568072275.2,286047001.9,N
1568072295.9,286047001.5,N
1568072315.7,286047003.9,Y
1568072335.6,286047001.0,P
1568072355.4,286047001.0,N
1568072375.2,286046999.7,N
1568072395.1,286047001.8,N
1568072396.0,286047001.8,N
1568072415.8,286047004.3,Y
1568072435.7,286047000.4,P
1568072455.5,286046999.9,N
1568072475.3,286047001.2,N
1568072495.2,286046996.8,Y
1568072515.0,286046996.1,P
1568072515.9,286046996.1,N
1568072535.7,286046999.6,N
1568072555.6,286046999.3,N
1568072575.4,286046996.9,N
1568072595.3,286047001.1,N
1568072615.1,286046998.2,N
1568072616.0,286046998.2,N
1568072635.8,286046999.8,N
1568072655.7,286047000.7,N
1568072675.5,286047000.6,N
1568072695.3,286046999.4,N
1568072715.2,286046997.1,N
1568072735.0,286046996.9,N
1568072735.9,286046996.9,N
1568072755.8,286046997.1,N
1568072775.6,286046997.0,N
1568072795.4,286046999.3,N
1568072815.3,286046998.9,N
1568072835.1,286046998.2,N
1568072855.8,286046998.2,N
1568072875.7,286047001.2,N
1568072895.5,286046998.2,N
1568072915.4,286047000.7,N
1568072935.2,286047000.9,N
1568072955.0,286047000.1,N
1568072955.9,286047000.1,N
1568072975.8,286046998.6,N
1568072995.6,286046998.7,N
1568073015.4,286046998.2,N
1568073035.3,286046999.1,N
1568073055.1,286046998.1,N
1568073075.9,286046998.1,N
1568073095.7,286046999.3,N
1568073115.5,286047001.1,N
1568073135.4,286046998.8,N
1568073155.2,286046997.4,N
1568073175.1,286046995.2,Y
1568073176.0,286046995.2,P
1568073195.8,286046999.6,N
1568073215.6,286046999.4,N
1568073235.5,286046997.1,N
1568073255.3,286046998.9,N
1568073275.1,286046998.9,N
1568073295.9,286046997.1,N
1568073315.7,286046997.2,N
1568073335.6,286046994.9,Y
1568073355.4,286046996.9,P
1568073375.2,286046997.8,P
1568073395.1,286046999.1,N
1568073396.0,286046999.1,N
1568073415.8,286046999.4,N
1568073435.6,286047001.2,N
1568073455.5,286046998.8,N
1568073475.3,286046999.3,N
1568073495.2,286047000.1,N
1568073515.9,286047000.0,N
1568073535.7,286047002.6,N
1568073555.6,286047002.0,N
1568073575.4,286047003.9,N
1568073595.2,286047001.8,N
